• Em Portugal
  • Lista de países
  • Para 7 dias
  • Temperatura da água
  • Mapas de satélite
  • Mapa do tempo
  • Widgets de tempo
  • user-avatar
    Iniciar Sessão

    Previsão horária em Swietoszow

    Hoje, 24 Setembro, Segunda-feira

    Tempo Temperatura Precipitação Vento Pressão Humidade
    00:00 +8°C° 0.9 mm 6 m/s 745 mmHg 90%
    01:00 +7°C° 0 mm 6 m/s 746 mmHg 87%
    02:00 +7°C° 0.1 mm 6 m/s 747 mmHg 87%
    03:00 +6°C° 0.1 mm 7 m/s 748 mmHg 87%
    04:00 +6°C° 0.1 mm 7 m/s 749 mmHg 87%
    05:00 +6°C° 0 mm 7 m/s 750 mmHg 86%
    06:00 +6°C° 0 mm 7 m/s 751 mmHg 85%
    07:00 +7°C° 0 mm 6 m/s 751 mmHg 85%
    08:00 +6°C° 0.1 mm 7 m/s 752 mmHg 80%
    09:00 +8°C° 0.1 mm 7 m/s 752 mmHg 76%
    10:00 +9°C° 0.1 mm 8 m/s 753 mmHg 72%
    11:00 +9°C° 0.2 mm 8 m/s 753 mmHg 67%
    12:00 +10°C° 0.2 mm 8 m/s 754 mmHg 63%
    13:00 +11°C° 0.2 mm 8 m/s 754 mmHg 59%
    14:00 +11°C° 0.2 mm 8 m/s 754 mmHg 58%
    15:00 +11°C° 0.2 mm 7 m/s 755 mmHg 57%
    16:00 +11°C° 0.2 mm 7 m/s 755 mmHg 56%
    17:00 +9°C° 0.2 mm 6 m/s 755 mmHg 61%
    18:00 +8°C° 0.2 mm 5 m/s 756 mmHg 66%
    19:00 +7°C° 0.2 mm 4 m/s 756 mmHg 72%
    20:00 +7°C° 0.2 mm 4 m/s 757 mmHg 73%
    21:00 +7°C° 0.2 mm 4 m/s 758 mmHg 74%
    22:00 +6°C° 0.2 mm 4 m/s 758 mmHg 76%
    23:00 +6°C° 0 mm 4 m/s 759 mmHg 77%

    Amanhã, 25 Setembro, Terça-feira

    Tempo Temperatura Precipitação Vento Pressão Humidade
    00:00 +5°C° 0 mm 4 m/s 759 mmHg 78%
    01:00 +5°C° 0 mm 4 m/s 759 mmHg 79%
    02:00 +5°C° 0 mm 4 m/s 760 mmHg 80%
    03:00 +4°C° 0 mm 4 m/s 760 mmHg 81%
    04:00 +4°C° 0 mm 4 m/s 761 mmHg 82%
    05:00 +4°C° 0 mm 4 m/s 761 mmHg 82%
    06:00 +4°C° 0 mm 4 m/s 762 mmHg 82%
    07:00 +4°C° 0 mm 4 m/s 762 mmHg 82%
    08:00 +6°C° 0 mm 4 m/s 763 mmHg 75%
    09:00 +8°C° 0 mm 4 m/s 763 mmHg 68%
    10:00 +10°C° 0 mm 4 m/s 764 mmHg 62%
    11:00 +11°C° 0.1 mm 4 m/s 764 mmHg 56%
    12:00 +12°C° 0.1 mm 3 m/s 764 mmHg 51%
    13:00 +13°C° 0.1 mm 3 m/s 764 mmHg 46%
    14:00 +13°C° 0 mm 3 m/s 764 mmHg 46%
    15:00 +13°C° 0 mm 3 m/s 764 mmHg 47%
    16:00 +13°C° 0 mm 3 m/s 764 mmHg 47%
    17:00 +12°C° 0 mm 2 m/s 764 mmHg 52%
    18:00 +10°C° 0 mm 2 m/s 765 mmHg 56%
    19:00 +10°C° 0 mm 1 m/s 765 mmHg 60%
    20:00 +9°C° 0 mm 1 m/s 765 mmHg 62%
    21:00 +9°C° 0 mm 1 m/s 765 mmHg 64%
    22:00 +8°C° 0 mm 1 m/s 766 mmHg 66%
    23:00 +8°C° 0 mm 1 m/s 766 mmHg 68%

    Depois de amanhã, 26 Setembro, Quarta-feira

    Tempo Temperatura Precipitação Vento Pressão Humidade
    00:00 +6°C° 0 mm 2 m/s 766 mmHg 69%
    01:00 +6°C° 0 mm 2 m/s 765 mmHg 70%
    02:00 +6°C° 0 mm 2 m/s 765 mmHg 71%
    03:00 +5°C° 0 mm 2 m/s 765 mmHg 72%
    04:00 +5°C° 0 mm 2 m/s 765 mmHg 72%
    05:00 +6°C° 0 mm 2 m/s 765 mmHg 71%
    06:00 +6°C° 0 mm 2 m/s 765 mmHg 70%
    07:00 +6°C° 0 mm 2 m/s 765 mmHg 69%
    08:00 +8°C° 0 mm 3 m/s 764 mmHg 62%
    09:00 +11°C° 0 mm 3 m/s 764 mmHg 54%
    10:00 +13°C° 0 mm 4 m/s 764 mmHg 47%
    11:00 +14°C° 0 mm 4 m/s 764 mmHg 44%
    12:00 +15°C° 0 mm 4 m/s 763 mmHg 42%
    13:00 +16°C° 0 mm 5 m/s 762 mmHg 39%
    14:00 +15°C° 0 mm 4 m/s 762 mmHg 41%
    15:00 +15°C° 0 mm 4 m/s 761 mmHg 42%
    16:00 +15°C° 0 mm 4 m/s 761 mmHg 43%
    17:00 +14°C° 0 mm 4 m/s 761 mmHg 47%
    18:00 +13°C° 0 mm 3 m/s 761 mmHg 51%
    19:00 +11°C° 0 mm 3 m/s 761 mmHg 56%
    20:00 +11°C° 0 mm 3 m/s 761 mmHg 55%
    21:00 +11°C° 0 mm 3 m/s 761 mmHg 54%
    22:00 +11°C° 0 mm 4 m/s 761 mmHg 54%
    23:00 +11°C° 0 mm 4 m/s 760 mmHg 54%

    27 Setembro, Quinta-feira

    Tempo Temperatura Precipitação Vento Pressão Humidade
    00:00 +11°C° 0 mm 4 m/s 760 mmHg 55%
    01:00 +11°C° 0 mm 4 m/s 760 mmHg 55%
    02:00 +11°C° 0 mm 4 m/s 760 mmHg 56%
    03:00 +11°C° 0 mm 4 m/s 760 mmHg 56%
    04:00 +11°C° 0 mm 4 m/s 759 mmHg 57%
    05:00 +11°C° 0 mm 4 m/s 759 mmHg 57%
    06:00 +11°C° 0 mm 4 m/s 759 mmHg 56%
    07:00 +11°C° 0 mm 4 m/s 759 mmHg 56%
    08:00 +13°C° 0 mm 4 m/s 759 mmHg 53%
    09:00 +15°C° 0 mm 4 m/s 759 mmHg 51%
    10:00 +17°C° 0 mm 5 m/s 759 mmHg 48%
    11:00 +19°C° 0 mm 5 m/s 759 mmHg 48%
    12:00 +20°C° 0 mm 4 m/s 759 mmHg 48%
    13:00 +21°C° 0 mm 4 m/s 758 mmHg 48%
    14:00 +21°C° 0 mm 4 m/s 758 mmHg 49%
    15:00 +21°C° 0 mm 4 m/s 757 mmHg 51%
    16:00 +21°C° 0 mm 3 m/s 757 mmHg 52%
    17:00 +20°C° 0 mm 3 m/s 757 mmHg 57%
    18:00 +18°C° 0 mm 3 m/s 757 mmHg 62%
    19:00 +16°C° 0 mm 2 m/s 756 mmHg 67%
    20:00 +16°C° 0 mm 2 m/s 756 mmHg 67%
    21:00 +15°C° 0 mm 2 m/s 756 mmHg 66%
    22:00 +15°C° 0 mm 2 m/s 756 mmHg 66%
    23:00 +14°C° 0 mm 2 m/s 755 mmHg 65%

    28 Setembro, Sexta-feira

    Tempo Temperatura Precipitação Vento Pressão Humidade
    00:00 +14°C° 0 mm 2 m/s 755 mmHg 64%
    01:00 +14°C° 0 mm 2 m/s 755 mmHg 64%
    02:00 +13°C° 0 mm 2 m/s 754 mmHg 64%
    03:00 +13°C° 0 mm 2 m/s 754 mmHg 65%
    04:00 +12°C° 0 mm 2 m/s 754 mmHg 65%
    05:00 +11°C° 0 mm 3 m/s 754 mmHg 66%
    06:00 +12°C° 0 mm 3 m/s 754 mmHg 66%
    07:00 +12°C° 0 mm 3 m/s 753 mmHg 67%
    08:00 +13°C° 0 mm 3 m/s 753 mmHg 62%
    09:00 +16°C° 0 mm 3 m/s 754 mmHg 57%
    10:00 +18°C° 0 mm 3 m/s 754 mmHg 53%
    11:00 +19°C° 0 mm 3 m/s 753 mmHg 51%
    12:00 +20°C° 0 mm 3 m/s 753 mmHg 50%
    13:00 +21°C° 0 mm 3 m/s 753 mmHg 48%
    14:00 +20°C° 0 mm 3 m/s 753 mmHg 50%
    15:00 +20°C° 0 mm 3 m/s 753 mmHg 52%
    16:00 +20°C° 0 mm 3 m/s 752 mmHg 55%
    17:00 +18°C° 0 mm 3 m/s 753 mmHg 61%
    18:00 +17°C° 0 mm 2 m/s 753 mmHg 67%
    19:00 +15°C° 0 mm 2 m/s 753 mmHg 73%
    20:00 +15°C° 0.1 mm 2 m/s 753 mmHg 74%
    21:00 +14°C° 0.1 mm 2 m/s 753 mmHg 75%
    22:00 +14°C° 0.1 mm 2 m/s 754 mmHg 76%
    23:00 +13°C° 0.1 mm 2 m/s 754 mmHg 79%

    29 Setembro, Sábado

    Tempo Temperatura Precipitação Vento Pressão Humidade
    00:00 +13°C° 0.1 mm 2 m/s 754 mmHg 81%
    01:00 +12°C° 0.1 mm 1 m/s 754 mmHg 83%
    02:00 +12°C° 0 mm 2 m/s 754 mmHg 85%
    03:00 +10°C° 0 mm 2 m/s 754 mmHg 86%
    04:00 +9°C° 0 mm 2 m/s 755 mmHg 88%
    05:00 +9°C° 0 mm 2 m/s 755 mmHg 88%
    06:00 +9°C° 0 mm 2 m/s 755 mmHg 88%
    07:00 +8°C° 0 mm 2 m/s 756 mmHg 88%
    08:00 +10°C° 0 mm 2 m/s 756 mmHg 78%
    09:00 +12°C° 0 mm 2 m/s 757 mmHg 69%
    10:00 +14°C° 0 mm 2 m/s 757 mmHg 60%
    11:00 +14°C° 0 mm 2 m/s 757 mmHg 54%
    12:00 +15°C° 0 mm 2 m/s 757 mmHg 49%
    13:00 +16°C° 0 mm 2 m/s 757 mmHg 43%
    14:00 +16°C° 0 mm 2 m/s 757 mmHg 43%
    15:00 +16°C° 0 mm 2 m/s 757 mmHg 44%
    16:00 +15°C° 0 mm 2 m/s 757 mmHg 44%
    17:00 +14°C° 0 mm 2 m/s 757 mmHg 49%
    18:00 +12°C° 0 mm 2 m/s 757 mmHg 55%
    19:00 +10°C° 0 mm 2 m/s 757 mmHg 60%
    20:00 +9°C° 0 mm 2 m/s 757 mmHg 62%
    21:00 +9°C° 0 mm 2 m/s 758 mmHg 65%
    22:00 +8°C° 0 mm 2 m/s 758 mmHg 67%
    23:00 +8°C° 0 mm 2 m/s 757 mmHg 69%
    Mostrar mais